Location: Unspecified
(0.0000°N, 0.0000°E)
Time: 19:23:39
(UTC+00:00)

deb Briz - Pass Details

Date: 17 February 2026
Orbit: 1607 x 2037 km, 64.9° (Epoch: 11 March)

Event Time Altitude Azimuth Distance (km) Brightness Sun altitude
Rises 04:14:56 0° 189° (S) 5,265 ? -29.1°
Reaches altitude 10° 04:18:29 10° 183° (S) 4,210 ? -28.2°
Maximum altitude 04:28:31 48° 112° (ESE) 2,165 ? -25.8°
Drops below altitude 10° 04:37:45 10° 41° (NE) 3,900 ? -23.5°
Sets 04:40:52 0° 35° (NE) 4,852 ? -22.7°
